sat.trackr.live / text

‹ back to catalog

STARLINK-31631

NORAD 59459 · 2024-068E

PAYLOAD ACTIVE UNKNOWN

§ Identity

Operator
Country
US
Launch date
2024-04-10
Launch site
AFETR
Launch vehicle
Mass (kg)
RCS (m²)

Purposes: comms

External: N2YO · Heavens-Above · Gunter

§ Orbital elements

Epoch: 2026-09-21T07:26:21.387264Z

Period
94.27 min
Inclination
43.0027°
Eccentricity
0.0000772
Mean motion
15.27565274 rev/d
Perigee alt
482.6 km
Apogee alt
483.6 km
Semi-major
6,861.2 km
B*
-3.0824e-5
RAAN
6.0141°
Arg perigee
228.4458°
Mean anomaly
131.6328°
Rev number
13,848

§ Raw data

STARLINK-316311 59459U 24068E   26264.30996976 -.00001110  00000+0 -30824-4 0  99962 59459  43.0027   6.0141 0000772 228.4458 131.6328 15.27565274138483

JSON: /api/v1/satellites/59459 · /tle

For live sub-satellite position, see the globe view (requires WebGL).

§ Visibility from observer

Set your observer location to see the next 7 days of passes ≥ 10°. The values pass through the URL so the page stays shareable.

No JS? Fill the form by hand. The geolocation button needs JavaScript.